CST,Max TemperatureF,Mean TemperatureF,Min TemperatureF,Max Dew PointF,MeanDew PointF,Min DewpointF,Max Humidity, Mean Humidity, Min Humidity, Max Sea Level PressureIn, Mean Sea Level PressureIn, Min Sea Level PressureIn, Max VisibilityMiles, Mean VisibilityMiles, Min VisibilityMiles, Max Wind SpeedMPH, Mean Wind SpeedMPH, Max Gust SpeedMPH,PrecipitationIn, CloudCover, Events, WindDirDegrees
2012-12-1,76,68,60,63,60,55,84,74,64,30.14,30.09,30.01,10,10,10,22,11,31,0.00,5,,185
2012-12-2,78,71,64,65,63,61,100,78,56,30.17,30.10,30.05,10,10,8,17,9,23,0.00,5,,184
2012-12-3,74,69,64,66,64,62,100,84,68,30.09,30.03,29.99,10,9,5,17,9,24,T,6,Rain,174
2012-12-4,77,68,59,66,63,53,100,82,64,30.22,30.09,30.03,10,10,7,16,10,23,T,7,Rain,197
2012-12-5,65,58,51,50,47,42,89,73,56,30.26,30.18,30.08,10,10,10,14,6,18,0.00,6,,50
2012-12-6,56,51,46,52,50,47,100,93,86,30.07,29.96,29.91,10,6,0,9,4,13,0.00,6,Fog,159
2012-12-7,67,59,50,61,57,52,100,89,78,29.92,29.88,29.81,10,6,0,10,5,13,0.00,7,Fog,169
2012-12-8,72,66,60,64,62,59,100,87,73,29.91,29.87,29.82,10,5,1,10,4,15,0.01,7,Rain,215
2012-12-9,75,63,51,65,61,45,93,83,72,29.88,29.80,29.75,10,8,1,28,12,39,0.25,6,Rain-Thunderstorm,219
2012-12-10,51,41,31,45,26,18,71,56,40,30.12,30.01,29.88,10,10,10,22,10,28,0.01,4,Rain-Thunderstorm,322
2012-12-11,47,35,22,24,20,17,88,61,34,30.27,30.20,30.12,10,10,10,8,2,14,0.00,0,,33
2012-12-12,54,38,22,25,18,10,96,58,19,30.38,30.31,30.27,10,10,10,9,2,14,0.00,0,,133
2012-12-13,58,42,25,26,23,18,84,53,21,30.38,30.32,30.26,10,10,10,10,3,13,0.00,0,,157
2012-12-14,58,45,31,50,34,25,85,60,35,30.25,30.12,29.92,10,10,4,15,6,21,0.02,5,Rain,137
2012-12-15,73,64,54,61,53,42,100,68,35,29.91,29.87,29.81,10,7,2,21,9,29,0.14,5,Rain,210
2012-12-16,62,57,52,54,50,47,100,80,60,29.82,29.76,29.70,10,8,0,12,6,15,T,2,Fog,207
2012-12-17,61,53,44,54,43,36,100,70,39,29.89,29.79,29.70,10,9,1,18,8,24,0.00,0,,242
2012-12-18,74,56,38,47,37,33,85,54,23,29.88,29.84,29.77,10,10,10,18,8,24,0.00,0,,188
2012-12-19,74,65,56,64,59,49,90,75,60,29.84,29.75,29.58,10,10,10,43,12,59,0.00,6,,177
2012-12-20,64,52,40,54,28,9,73,46,19,30.36,30.00,29.67,10,8,1,43,18,59,0.28,3,Rain-Thunderstorm,282
2012-12-21,60,45,29,20,15,10,53,36,19,30.46,30.37,30.31,10,10,10,14,7,17,0.00,0,,246
2012-12-22,65,49,32,36,24,17,63,43,22,30.34,30.23,30.09,10,10,10,18,8,23,0.00,0,,202
2012-12-23,69,62,55,56,52,42,80,64,47,30.07,29.93,29.82,10,10,10,14,8,20,0.00,5,,205
2012-12-24,63,51,38,43,38,32,80,63,46,29.99,29.89,29.84,10,10,10,13,4,15,0.00,0,,289
2012-12-25,50,41,32,43,36,30,100,83,66,29.94,29.75,29.56,10,4,0,24,13,32,2.56,8,Fog-Rain-Snow-Thunderstorm,26
2012-12-26,32,29,25,29,25,22,92,85,78,30.22,30.13,29.96,10,9,6,22,8,26,0.00,4,,280
2012-12-27,42,32,22,37,30,21,100,87,73,30.20,30.09,29.97,10,6,1,12,3,16,0.03,6,Rain,87
2012-12-28,39,37,34,39,37,36,100,96,92,30.13,29.95,29.86,10,5,1,17,9,24,0.57,8,Rain,1
2012-12-29,42,34,26,22,21,19,75,58,41,30.45,30.33,30.13,10,10,8,15,7,21,0.00,0,,291
2012-12-30,47,35,22,28,23,20,88,63,37,30.52,30.42,30.31,10,10,9,12,4,14,T,1,Rain,133
2012-12-31,49,44,39,47,40,28,100,79,57,30.29,30.07,29.95,10,4,0,21,5,24,0.59,8,Fog-Rain,89